SP8EBC-11 Weather Reports


time (UTC)temp
C
wind
direction
speed
KPH
gust
KPH
rain 1hr
cm
rain 24hr
cm
rain mn
cm
humidity
%
barometer
mb
20260507034557 11 26 8.0 9.7 0.00 0.00 0.00 82 989.9
20260507034356 11 19 8.0 9.7 0.00 0.00 0.00 82 989.9
20260507034156 11 14 8.0 9.7 0.00 0.00 0.00 82 989.9
20260507033956 11 14 8.0 9.7 0.00 0.00 0.00 82 990.0
20260507033756 11 15 6.4 8.0 0.00 0.00 0.00 82 990.0
20260507033556 10 15 6.4 8.0 0.00 0.00 0.00 82 990.0
20260507033356 10 23 8.0 9.7 0.00 0.00 0.00 82 990.0
20260507033156 10 12 6.4 9.7 0.00 0.00 0.00 82 990.2
20260507032956 10 15 3.2 6.4 0.00 0.00 0.00 81 990.3
20260507032755 10 21 3.2 4.8 0.00 0.00 0.00 81 990.3
20260507032555 10 26 4.8 6.4 0.00 0.00 0.00 81 990.2
20260507032355 10 25 4.8 6.4 0.00 0.00 0.00 81 990.2
20260507032155 10 17 6.4 6.4 0.00 0.00 0.00 81 990.2
20260507031955 10 3 6.4 8.0 0.00 0.00 0.00 81 990.2
20260507031755 10 330 6.4 6.4 0.00 0.00 0.00 81 990.3
20260507031555 10 318 6.4 6.4 0.00 0.00 0.00 81 990.3
20260507031355 10 322 4.8 6.4 0.00 0.00 0.00 81 990.3
20260507031155 10 333 6.4 6.4 0.00 0.00 0.00 81 990.3
20260507030955 10 0 6.4 6.4 0.00 0.00 0.00 81 990.2
20260507030755 10 18 6.4 6.4 0.00 0.00 0.00 81 990.2
20260507030555 10 17 6.4 6.4 0.00 0.00 0.00 81 990.3
20260507030355 10 353 4.8 6.4 0.00 0.00 0.00 81 990.3
20260507030155 10 345 4.8 6.4 0.00 0.00 0.00 81 990.4
20260507025955 10 312 3.2 6.4 0.00 0.00 0.00 81 990.5
20260507025755 10 274 4.8 8.0 0.00 0.00 0.00 81 990.7
20260507025555 10 264 6.4 9.7 0.00 0.00 0.00 80 990.6
20260507025146 10 275 8.0 12.9 0.00 0.00 0.00 80 990.6
20260507024946 10 237 6.4 12.9 0.00 0.00 0.00 80 990.9
20260507024746 10 223 11.3 16.1 0.00 0.00 0.00 80 990.9
20260507024546 10 219 12.9 16.1 0.00 0.00 0.00 80 990.7
20260507024346 10 206 9.7 14.5 0.00 0.00 0.00 79 990.5
20260507024146 10 225 4.8 8.0 0.00 0.00 0.00 79 990.5
20260507023946 10 249 1.6 3.2 0.00 0.00 0.00 79 990.4
20260507023745 10 249 1.6 1.6 0.00 0.00 0.00 79 990.3
20260507023545 10 249 1.6 1.6 0.00 0.00 0.00 79 990.3
20260507023345 10 249 1.6 1.6 0.00 0.00 0.00 79 990.2
20260507023145 10 249 1.6 1.6 0.00 0.00 0.00 79 990.1
20260507022945 10 249 1.6 1.6 0.00 0.00 0.00 79 990.0
20260507022745 10 249 1.6 1.6 0.00 0.00 0.00 79 990.0
20260507022545 10 249 1.6 3.2 0.00 0.00 0.00 79 990.1
20260507022345 10 249 4.8 6.4 0.00 0.00 0.00 79 990.1
20260507022145 10 251 6.4 6.4 0.00 0.00 0.00 79 990.2
20260507021945 10 253 8.0 11.3 0.00 0.00 0.00 79 990.3
20260507021744 10 237 9.7 12.9 0.00 0.00 0.00 79 990.3
20260507021545 10 229 6.4 9.7 0.00 0.00 0.00 79 990.3
20260507021345 10 242 4.8 4.8 0.00 0.00 0.00 79 990.3
20260507021145 10 256 3.2 4.8 0.00 0.00 0.00 79 990.3
20260507020944 10 248 4.8 4.8 0.00 0.00 0.00 79 990.4
20260507020745 10 268 3.2 4.8 0.00 0.00 0.00 79 990.4
20260507020544 11 277 3.2 3.2 0.00 0.00 0.00 79 990.4
20260507020343 11 272 4.8 8.0 0.00 0.00 0.00 79 990.4
20260507020145 11 249 8.0 11.3 0.00 0.00 0.00 79 990.5
20260507015943 11 233 12.9 17.7 0.00 0.00 0.00 79 990.5
20260507015745 11 234 12.9 17.7 0.00 0.00 0.00 79 990.4
20260507015543 11 244 11.3 12.9 0.00 0.00 0.00 78 990.4
20260507015344 11 246 11.3 12.9 0.00 0.00 0.00 78 990.3
20260507015144 11 241 11.3 14.5 0.00 0.00 0.00 78 990.3
20260507014943 11 238 11.3 14.5 0.00 0.00 0.00 78 990.3
20260507014743 11 235 8.0 11.3 0.00 0.00 0.00 78 990.2
20260507014543 11 244 6.4 8.0 0.00 0.00 0.00 78 990.2
20260507014343 11 254 3.2 6.4 0.00 0.00 0.00 78 990.1
20260507014144 11 242 3.2 4.8 0.00 0.00 0.00 77 990.0
20260507013943 11 225 1.6 1.6 0.00 0.00 0.00 77 990.0
20260507013743 11 225 1.6 1.6 0.00 0.00 0.00 78 990.0
20260507013542 11 225 1.6 1.6 0.00 0.00 0.00 78 990.0
20260507013342 11 225 1.6 1.6 0.00 0.00 0.00 78 990.1
20260507013142 11 225 1.6 4.8 0.00 0.00 0.00 78 990.1
20260507012942 11 196 3.2 4.8 0.00 0.00 0.00 78 990.0
20260507012743 11 101 1.6 3.2 0.00 0.00 0.00 77 990.0
20260507012542 11 99 3.2 4.8 0.00 0.00 0.00 77 990.0
20260507012343 11 93 3.2 4.8 0.00 0.00 0.00 77 989.9
20260507012142 11 59 3.2 4.8 0.00 0.00 0.00 77 989.9
20260507011942 11 51 1.6 1.6 0.00 0.00 0.00 77 989.9
20260507011742 11 50 1.6 1.6 0.00 0.00 0.00 77 989.9
20260507011542 11 50 1.6 1.6 0.00 0.00 0.00 77 990.0
20260507011342 11 50 1.6 1.6 0.00 0.00 0.00 77 990.0
20260507011142 11 51 1.6 3.2 0.00 0.00 0.00 77 990.0
20260507010942 11 345 1.6 3.2 0.00 0.00 0.00 77 989.9
20260507010742 11 306 1.6 1.6 0.00 0.00 0.00 77 989.9
20260507010543 11 306 1.6 3.2 0.00 0.00 0.00 77 989.9
20260507010341 11 306 3.2 4.8 0.00 0.00 0.00 77 989.8
20260507010141 11 306 4.8 4.8 0.00 0.00 0.00 77 989.8
20260507005941 11 306 4.8 4.8 0.00 0.00 0.00 77 989.7
20260507005742 11 309 4.8 4.8 0.00 0.00 0.00 77 989.7
20260507005541 11 5 3.2 4.8 0.00 0.00 0.00 77 989.7
20260507005342 11 92 1.6 3.2 0.00 0.00 0.00 77 989.7
20260507005141 11 103 0.0 1.6 0.00 0.00 0.00 77 989.8
20260507004941 11 102 0.0 0.0 0.00 0.00 0.00 77 989.8
20260507004741 11 102 0.0 1.6 0.00 0.00 0.00 77 989.8
20260507004541 11 102 0.0 1.6 0.00 0.00 0.00 77 989.8
20260507004341 11 102 0.0 0.0 0.00 0.00 0.00 77 989.8
20260507004141 11 102 0.0 0.0 0.00 0.00 0.00 77 989.8
20260507003941 11 103 0.0 0.0 0.00 0.00 0.00 77 989.8
20260507003741 11 103 1.6 3.2 0.00 0.00 0.00 77 989.8
20260507003541 11 103 3.2 3.2 0.00 0.00 0.00 77 989.8
20260507003341 11 102 3.2 4.8 0.00 0.00 0.00 77 989.8
20260507003141 11 102 3.2 4.8 0.00 0.00 0.00 77 989.8
20260507002941 11 102 3.2 3.2 0.00 0.00 0.00 78 989.8
20260507002741 11 102 3.2 4.8 0.00 0.00 0.00 78 989.8
20260507002541 10 102 4.8 6.4 0.00 0.00 0.00 78 989.8
20260507002345 10 104 4.8 6.4 0.00 0.00 0.00 77 989.7
20260507002141 10 102 4.8 6.4 0.00 0.00 0.00 77 989.7
20260507001940 10 102 4.8 6.4 0.00 0.00 0.00 77 989.6
20260507001733 10 102 4.8 4.8 0.00 0.00 0.00 77 989.7
20260507001533 10 102 4.8 4.8 0.00 0.00 0.00 78 989.7
20260507001333 10 102 6.4 6.4 0.00 0.00 0.00 78 989.7
20260507001133 10 102 4.8 6.4 0.00 0.00 0.00 78 989.8
20260507000933 10 102 4.8 6.4 0.00 0.00 0.00 78 989.8
20260507000733 10 87 4.8 4.8 0.00 0.00 0.00 77 989.8
20260507000533 10 65 3.2 4.8 0.00 0.00 0.00 78 989.8
20260507000335 9 65 3.2 4.8 0.00 0.00 0.00 77 989.8
20260507000132 9 63 3.2 3.2 0.00 0.00 0.00 77 989.8
20260506235932 9 62 1.6 3.2 0.00 0.00 0.00 77 989.9
20260506235732 9 63 1.6 1.6 0.00 0.00 0.00 77 989.9
20260506235534 9 62 1.6 1.6 0.00 0.00 0.00 77 989.9
20260506235332 9 65 1.6 1.6 0.00 0.00 0.00 77 990.0
20260506235132 9 65 1.6 1.6 0.00 0.00 0.00 77 990.0
20260506234932 9 65 0.0 1.6 0.00 0.00 0.00 77 990.1
20260506234732 9 63 0.0 1.6 0.00 0.00 0.00 77 990.1
20260506234532 9 63 1.6 1.6 0.00 0.00 0.00 77 990.1
20260506234332 9 62 0.0 1.6 0.00 0.00 0.00 77 990.1
20260506234132 9 62 0.0 1.6 0.00 0.00 0.00 77 990.1
20260506233932 9 62 1.6 3.2 0.00 0.00 0.00 77 990.1
20260506233732 9 65 3.2 3.2 0.00 0.00 0.00 77 990.0
20260506233532 9 65 3.2 3.2 0.00 0.00 0.00 77 990.1
20260506233332 9 65 1.6 3.2 0.00 0.00 0.00 77 990.1
20260506233131 9 63 1.6 3.2 0.00 0.00 0.00 77 990.1
20260506232931 9 62 1.6 1.6 0.00 0.00 0.00 76 990.1
20260506232731 9 62 1.6 3.2 0.00 0.00 0.00 76 990.1
20260506232531 9 62 1.6 3.2 0.00 0.00 0.00 76 990.1
20260506232331 9 62 3.2 3.2 0.00 0.00 0.00 76 990.1
20260506232131 10 65 3.2 3.2 0.00 0.00 0.00 76 990.1
20260506231931 10 65 1.6 3.2 0.00 0.00 0.00 76 990.1
20260506231731 10 65 0.0 1.6 0.00 0.00 0.00 76 990.1
20260506231531 10 63 0.0 0.0 0.00 0.00 0.00 76 990.1
20260506231331 10 62 0.0 0.0 0.00 0.00 0.00 76 990.1
20260506231131 10 62 0.0 0.0 0.00 0.00 0.00 76 990.1
20260506230931 10 62 0.0 0.0 0.00 0.00 0.00 76 990.2
20260506230731 10 63 0.0 0.0 0.00 0.00 0.00 76 990.2
20260506230531 10 65 0.0 0.0 0.00 0.00 0.00 76 990.2
20260506230334 10 65 0.0 1.6 0.00 0.00 0.00 76 990.1
20260506230131 10 65 1.6 1.6 0.00 0.00 0.00 76 990.2
20260506225930 10 63 1.6 1.6 0.00 0.00 0.00 75 990.2
20260506225730 10 62 1.6 3.2 0.00 0.00 0.00 75 990.2
20260506225530 10 63 3.2 3.2 0.00 0.00 0.00 75 990.2
20260506225330 10 62 3.2 4.8 0.00 0.00 0.00 75 990.2
20260506225130 10 65 3.2 4.8 0.00 0.00 0.00 75 990.2
20260506224930 10 65 3.2 3.2 0.00 0.00 0.00 75 990.3
20260506224730 10 70 3.2 3.2 0.00 0.00 0.00 75 990.2
20260506224530 10 87 3.2 3.2 0.00 0.00 0.00 75 990.2
20260506224330 10 99 3.2 3.2 0.00 0.00 0.00 75 990.2
20260506224130 10 114 3.2 3.2 0.00 0.00 0.00 75 990.2
20260506223930 11 114 1.6 3.2 0.00 0.00 0.00 75 990.2
20260506223730 11 114 0.0 0.0 0.00 0.00 0.00 75 990.1
20260506223530 11 116 0.0 1.6 0.00 0.00 0.00 75 990.1
20260506223330 11 116 1.6 1.6 0.00 0.00 0.00 75 990.1
20260506223130 11 116 3.2 3.2 0.00 0.00 0.00 75 990.1
20260506222929 11 115 1.6 3.2 0.00 0.00 0.00 75 990.1
20260506222729 10 115 0.0 1.6 0.00 0.00 0.00 75 990.1
20260506222529 11 115 0.0 1.6 0.00 0.00 0.00 74 990.1
20260506222329 11 114 1.6 1.6 0.00 0.00 0.00 74 990.1
20260506222129 11 114 1.6 1.6 0.00 0.00 0.00 74 990.1
20260506221929 11 116 0.0 1.6 0.00 0.00 0.00 74 990.1
20260506221729 11 116 1.6 1.6 0.00 0.00 0.00 74 990.1
20260506221529 11 116 1.6 3.2 0.00 0.00 0.00 74 990.1
20260506221329 11 115 1.6 3.2 0.00 0.00 0.00 74 990.0
20260506221129 11 114 1.6 1.6 0.00 0.00 0.00 74 990.0
20260506220929 11 114 1.6 3.2 0.00 0.00 0.00 74 990.0
20260506220729 11 114 3.2 3.2 0.00 0.00 0.00 74 990.0
20260506220529 11 115 3.2 3.2 0.00 0.00 0.00 74 990.0
20260506220329 11 116 3.2 3.2 0.00 0.00 0.00 74 990.0
20260506220129 11 116 1.6 1.6 0.00 0.00 0.00 74 990.0
20260506215929 11 116 1.6 1.6 0.00 0.00 0.00 74 990.0
20260506215728 11 115 1.6 1.6 0.00 0.00 0.00 73 990.0
20260506215528 11 114 1.6 3.2 0.00 0.00 0.00 74 990.0
20260506215328 11 115 1.6 3.2 0.00 0.00 0.00 74 990.0
20260506215128 11 114 3.2 3.2 0.00 0.00 0.00 74 990.0
20260506214932 11 116 3.2 3.2 0.00 0.00 0.00 74 990.0
20260506214728 11 116 3.2 3.2 0.00 0.00 0.00 74 989.9
20260506214537 11 115 3.2 3.2 0.00 0.00 0.00 74 990.0
20260506214122 11 115 3.2 3.2 0.00 0.00 0.00 74 990.0
20260506213922 11 114 3.2 3.2 0.00 0.00 0.00 74 990.0
20260506213722 11 114 3.2 3.2 0.00 0.00 0.00 73 990.1
20260506213522 11 114 1.6 3.2 0.00 0.00 0.00 73 990.1
20260506213322 11 116 0.0 1.6 0.00 0.00 0.00 73 990.1
20260506213122 11 116 1.6 3.2 0.00 0.00 0.00 73 990.1
20260506212922 11 116 3.2 3.2 0.00 0.00 0.00 73 990.1
20260506212721 11 115 3.2 3.2 0.00 0.00 0.00 73 990.1
20260506212521 11 114 3.2 3.2 0.00 0.00 0.00 73 990.1
20260506212321 11 114 1.6 3.2 0.00 0.00 0.00 73 990.2
20260506212121 11 114 1.6 1.6 0.00 0.00 0.00 73 990.2
20260506211922 11 114 1.6 1.6 0.00 0.00 0.00 73 990.2
20260506211721 11 116 0.0 1.6 0.00 0.00 0.00 73 990.2
20260506211521 11 116 1.6 1.6 0.00 0.00 0.00 73 990.2
20260506211321 11 116 1.6 3.2 0.00 0.00 0.00 72 990.2
20260506211121 11 115 3.2 3.2 0.00 0.00 0.00 72 990.2
20260506210921 11 114 3.2 3.2 0.00 0.00 0.00 72 990.2
20260506210721 11 114 3.2 4.8 0.00 0.00 0.00 72 990.2
20260506210521 11 113 4.8 4.8 0.00 0.00 0.00 72 990.1
20260506210321 11 97 3.2 4.8 0.00 0.00 0.00 72 990.1
20260506210121 11 49 1.6 3.2 0.00 0.00 0.00 72 990.1
20260506205921 11 36 3.2 3.2 0.00 0.00 0.00 72 990.1
20260506205722 11 36 3.2 3.2 0.00 0.00 0.00 72 990.1
20260506205521 11 33 3.2 3.2 0.00 0.00 0.00 72 990.1
20260506205321 11 33 1.6 3.2 0.00 0.00 0.00 72 990.1
20260506205121 11 33 1.6 3.2 0.00 0.00 0.00 72 990.1
20260506204921 11 33 3.2 3.2 0.00 0.00 0.00 72 990.1
20260506204721 11 36 3.2 3.2 0.00 0.00 0.00 72 990.0
20260506204521 11 22 3.2 3.2 0.00 0.00 0.00 72 990.0
20260506204321 11 255 3.2 3.2 0.00 0.00 0.00 72 990.0
20260506204121 11 249 1.6 3.2 0.00 0.00 0.00 72 990.0
20260506203921 11 249 1.6 1.6 0.00 0.00 0.00 71 990.0
20260506203720 11 248 1.6 1.6 0.00 0.00 0.00 71 990.0
20260506203521 12 248 1.6 1.6 0.00 0.00 0.00 71 990.0
20260506203321 12 248 1.6 1.6 0.00 0.00 0.00 71 990.0
20260506203124 12 249 1.6 1.6 0.00 0.00 0.00 71 989.9
20260506202921 12 249 1.6 1.6 0.00 0.00 0.00 71 989.8
20260506202721 12 249 1.6 3.2 0.00 0.00 0.00 71 989.8
20260506202522 12 249 3.2 3.2 0.00 0.00 0.00 71 989.8
20260506202320 12 248 3.2 3.2 0.00 0.00 0.00 71 989.8
20260506202120 12 248 1.6 1.6 0.00 0.00 0.00 71 989.8
20260506201920 12 248 1.6 1.6 0.00 0.00 0.00 71 989.8
20260506201720 12 248 1.6 1.6 0.00 0.00 0.00 71 989.8
20260506201520 12 249 0.0 1.6 0.00 0.00 0.00 71 989.8
20260506201320 12 249 0.0 1.6 0.00 0.00 0.00 71 989.8
20260506201120 12 249 1.6 1.6 0.00 0.00 0.00 70 989.8
20260506200919 12 249 1.6 1.6 0.00 0.00 0.00 70 989.8
20260506200719 12 248 1.6 1.6 0.00 0.00 0.00 70 989.8
20260506200519 12 248 1.6 3.2 0.00 0.00 0.00 70 989.8
20260506200319 12 248 1.6 3.2 0.00 0.00 0.00 70 989.9
20260506200120 12 249 0.0 1.6 0.00 0.00 0.00 70 989.9
20260506195920 12 249 0.0 1.6 0.00 0.00 0.00 69 989.9
20260506195720 12 249 1.6 1.6 0.00 0.00 0.00 69 989.9
20260506195520 12 249 1.6 1.6 0.00 0.00 0.00 69 989.9
20260506195319 12 249 1.6 1.6 0.00 0.00 0.00 69 989.9
20260506195119 13 249 0.0 1.6 0.00 0.00 0.00 69 989.8
20260506194919 13 249 0.0 0.0 0.00 0.00 0.00 69 989.8
20260506194719 13 248 0.0 1.6 0.00 0.00 0.00 69 989.8
20260506194521 13 249 0.0 1.6 0.00 0.00 0.00 69 989.8
20260506194319 13 249 1.6 1.6 0.00 0.00 0.00 69 989.8
20260506194119 13 249 1.6 1.6 0.00 0.00 0.00 69 989.8
20260506193919 13 249 0.0 1.6 0.00 0.00 0.00 68 989.8
20260506193718 13 249 1.6 1.6 0.00 0.00 0.00 68 989.8
20260506193518 13 248 0.0 1.6 0.00 0.00 0.00 68 989.9
20260506193318 13 248 0.0 1.6 0.00 0.00 0.00 68 989.9
20260506193118 13 248 1.6 1.6 0.00 0.00 0.00 68 989.9
20260506192918 13 249 1.6 3.2 0.00 0.00 0.00 68 989.9
20260506192718 13 249 1.6 3.2 0.00 0.00 0.00 68 989.9
20260506192519 13 249 0.0 1.6 0.00 0.00 0.00 68 989.9
20260506192318 14 249 1.6 1.6 0.00 0.00 0.00 67 989.9
20260506192118 14 248 1.6 1.6 0.00 0.00 0.00 67 989.8
20260506191918 14 248 1.6 3.2 0.00 0.00 0.00 67 989.8
20260506191718 14 248 1.6 3.2 0.00 0.00 0.00 67 989.8
20260506191518 14 248 3.2 3.2 0.00 0.00 0.00 67 989.8
20260506191318 14 249 3.2 3.2 0.00 0.00 0.00 67 989.8
20260506191118 14 249 3.2 3.2 0.00 0.00 0.00 66 989.8
20260506190918 14 249 3.2 3.2 0.00 0.00 0.00 66 989.8
20260506190709 15 248 1.6 3.2 0.00 0.00 0.00 66 989.8
20260506190510 15 248 0.0 3.2 0.00 0.00 0.00 66 989.8
20260506190310 15 248 0.0 0.0 0.00 0.00 0.00 65 989.8
20260506190110 15 249 0.0 0.0 0.00 0.00 0.00 65 989.8
20260506185910 15 249 0.0 0.0 0.00 0.00 0.00 65 989.8
20260506185710 16 249 0.0 0.0 0.00 0.00 0.00 65 989.8
20260506185509 16 249 0.0 0.0 0.00 0.00 0.00 65 989.8
20260506185309 16 248 0.0 0.0 0.00 0.00 0.00 64 989.7
20260506185109 16 248 0.0 0.0 0.00 0.00 0.00 64 989.7
20260506184911 16 248 0.0 0.0 0.00 0.00 0.00 64 989.7
20260506184709 16 249 0.0 0.0 0.00 0.00 0.00 64 989.7
20260506184509 17 249 0.0 0.0 0.00 0.00 0.00 64 989.7
20260506184311 17 249 0.0 0.0 0.00 0.00 0.00 64 989.6
20260506184109 17 249 0.0 0.0 0.00 0.00 0.00 64 989.6
20260506183908 17 249 0.0 0.0 0.00 0.00 0.00 64 989.6
20260506183708 17 248 0.0 0.0 0.00 0.00 0.00 64 989.6
20260506183508 17 248 0.0 1.6 0.00 0.00 0.00 64 989.6
20260506183308 17 248 1.6 1.6 0.00 0.00 0.00 64 989.6
20260506183109 17 249 1.6 1.6 0.00 0.00 0.00 64 989.6
20260506182909 17 249 1.6 1.6 0.00 0.00 0.00 64 989.6
20260506182709 17 249 1.6 1.6 0.00 0.00 0.00 64 989.6
20260506182509 17 249 1.6 3.2 0.00 0.00 0.00 64 989.5
20260506182308 17 249 3.2 3.2 0.00 0.00 0.00 64 989.5
20260506182108 17 248 3.2 3.2 0.00 0.00 0.00 64 989.5
20260506181908 17 248 3.2 3.2 0.00 0.00 0.00 64 989.5
20260506181708 17 248 3.2 3.2 0.00 0.00 0.00 64 989.5
20260506181508 17 249 3.2 3.2 0.00 0.00 0.00 64 989.5
20260506181308 17 249 3.2 4.8 0.00 0.00 0.00 63 989.5
20260506181108 17 249 3.2 4.8 0.00 0.00 0.00 63 989.5
20260506180907 17 249 1.6 3.2 0.00 0.00 0.00 63 989.5
20260506180707 17 249 3.2 3.2 0.00 0.00 0.00 63 989.4
20260506180507 17 248 3.2 3.2 0.00 0.00 0.00 63 989.4
20260506180307 18 248 4.8 4.8 0.00 0.00 0.00 63 989.3
20260506180107 18 248 4.8 4.8 0.00 0.00 0.00 63 989.3
20260506175908 18 249 4.8 4.8 0.00 0.00 0.00 63 989.3
20260506175708 18 249 4.8 6.4 0.00 0.00 0.00 63 989.3
20260506175508 18 250 6.4 6.4 0.00 0.00 0.00 63 989.3
20260506175307 18 254 6.4 6.4 0.00 0.00 0.00 63 989.1
20260506175107 18 255 6.4 8.0 0.00 0.00 0.00 63 989.1
20260506174907 18 256 6.4 8.0 0.00 0.00 0.00 63 989.0
20260506174707 18 256 6.4 9.7 0.00 0.00 0.00 63 989.0
20260506174507 18 258 6.4 8.0 0.00 0.00 0.00 63 989.0
20260506174307 18 261 6.4 8.0 0.00 0.00 0.00 62 989.1
20260506174107 18 264 8.0 9.7 0.00 0.00 0.00 62 989.2
20260506173907 18 261 8.0 11.3 0.00 0.00 0.00 62 989.2
20260506173707 18 261 8.0 11.3 0.00 0.00 0.00 62 989.2
20260506173507 18 262 8.0 9.7 0.00 0.00 0.00 62 989.2
20260506173306 18 264 8.0 11.3 0.00 0.00 0.00 62 989.2
20260506173106 18 263 9.7 14.5 0.00 0.00 0.00 62 989.2
20260506172906 18 265 9.7 11.3 0.00 0.00 0.00 62 989.2
20260506172707 18 267 9.7 12.9 0.00 0.00 0.00 62 989.2
20260506172506 18 265 9.7 11.3 0.00 0.00 0.00 62 989.2
20260506172307 19 262 9.7 12.9 0.00 0.00 0.00 62 989.2
20260506172106 19 262 11.3 14.5 0.00 0.00 0.00 62 989.2
20260506171906 19 266 12.9 16.1 0.00 0.00 0.00 62 989.1
20260506171706 19 266 12.9 14.5 0.00 0.00 0.00 62 989.1
20260506171506 19 259 12.9 19.3 0.00 0.00 0.00 61 989.1
20260506171306 19 258 16.1 20.9 0.00 0.00 0.00 61 989.1
20260506171108 19 259 12.9 19.3 0.00 0.00 0.00 61 989.1
20260506170906 19 261 12.9 16.1 0.00 0.00 0.00 61 989.1
20260506170705 20 259 14.5 17.7 0.00 0.00 0.00 61 989.0
20260506170505 20 253 12.9 17.7 0.00 0.00 0.00 61 988.9
20260506170305 20 252 11.3 14.5 0.00 0.00 0.00 61 988.9
20260506170105 20 257 11.3 14.5 0.00 0.00 0.00 61 988.9
20260506165905 20 252 11.3 16.1 0.00 0.00 0.00 61 988.9
20260506165705 20 252 11.3 16.1 0.00 0.00 0.00 61 988.9
20260506165505 20 253 11.3 16.1 0.00 0.00 0.00 61 988.8
20260506165306 20 247 12.9 17.7 0.00 0.00 0.00 61 988.8
20260506165105 20 242 17.7 25.7 0.00 0.00 0.00 61 988.8
20260506164905 20 244 19.3 25.7 0.00 0.00 0.00 61 988.7
20260506164705 20 242 16.1 22.5 0.00 0.00 0.00 61 988.5
20260506164505 20 242 14.5 17.7 0.00 0.00 0.00 61 988.4
20260506164305 20 242 12.9 16.1 0.00 0.00 0.00 61 988.4
20260506164105 20 240 14.5 19.3 0.00 0.00 0.00 61 988.5
20260506163905 20 233 16.1 22.5 0.00 0.00 0.00 61 988.5
20260506163705 20 231 17.7 20.9 0.00 0.00 0.00 61 988.6
20260506163505 20 232 17.7 20.9 0.00 0.00 0.00 61 988.6
20260506163056 20 229 12.9 19.3 0.00 0.00 0.00 61 988.4
20260506162856 20 233 11.3 12.9 0.00 0.00 0.00 61 988.3
20260506162656 20 231 12.9 17.7 0.00 0.00 0.00 61 988.3
20260506162456 20 236 11.3 17.7 0.00 0.00 0.00 61 988.4
20260506162256 20 231 11.3 14.5 0.00 0.00 0.00 61 988.5
20260506162056 20 232 12.9 16.1 0.00 0.00 0.00 61 988.5
20260506161856 21 235 12.9 19.3 0.00 0.00 0.00 61 988.5
20260506161655 21 241 12.9 17.7 0.00 0.00 0.00 61 988.5
20260506161455 21 232 11.3 17.7 0.00 0.00 0.00 61 988.5
20260506161255 21 232 11.3 16.1 0.00 0.00 0.00 61 988.5
20260506161055 21 232 12.9 17.7 0.00 0.00 0.00 61 988.5
20260506160855 21 233 14.5 19.3 0.00 0.00 0.00 61 988.4
20260506160655 21 236 12.9 16.1 0.00 0.00 0.00 61 988.2
20260506160455 21 236 12.9 16.1 0.00 0.00 0.00 61 988.2
20260506160255 21 238 12.9 17.7 0.00 0.00 0.00 61 988.4
20260506160055 21 238 12.9 16.1 0.00 0.00 0.00 61 988.5
20260506155855 21 242 14.5 19.3 0.00 0.00 0.00 61 988.3
20260506155655 21 242 12.9 17.7 0.00 0.00 0.00 61 988.3
20260506155455 21 238 12.9 16.1 0.00 0.00 0.00 61 988.4
20260506155255 21 242 16.1 19.3 0.00 0.00 0.00 61 988.5
20260506155055 21 240 14.5 17.7 0.00 0.00 0.00 61 988.6
20260506154855 21 232 19.3 25.7 0.00 0.00 0.00 60 988.5
20260506154655 21 236 20.9 25.7 0.00 0.00 0.00 60 988.5
20260506154454 21 239 20.9 29.0 0.00 0.00 0.00 61 988.4
20260506154254 21 230 16.1 29.0 0.00 0.00 0.00 60 988.3
20260506154054 21 229 14.5 20.9 0.00 0.00 0.00 60 988.4
20260506153854 21 230 16.1 19.3 0.00 0.00 0.00 60 988.5
20260506153654 21 231 16.1 19.3 0.00 0.00 0.00 60 988.4
20260506153454 21 226 14.5 19.3 0.00 0.00 0.00 61 988.3
20260506153254 21 232 17.7 24.1 0.00 0.00 0.00 61 988.3
20260506153054 21 228 16.1 22.5 0.00 0.00 0.00 61 988.2
20260506152854 21 232 17.7 22.5 0.00 0.00 0.00 61 988.0
20260506152654 21 236 12.9 19.3 0.00 0.00 0.00 61 988.0
20260506152454 21 237 12.9 19.3 0.00 0.00 0.00 61 988.1
20260506152254 21 232 14.5 19.3 0.00 0.00 0.00 61 988.2
20260506152054 21 233 16.1 20.9 0.00 0.00 0.00 61 988.4
20260506151854 21 233 16.1 20.9 0.00 0.00 0.00 61 988.4
20260506151654 21 235 16.1 20.9 0.00 0.00 0.00 61 988.5
20260506151453 21 230 16.1 19.3 0.00 0.00 0.00 61 988.5
20260506151253 21 233 19.3 24.1 0.00 0.00 0.00 60 988.5
20260506151053 21 233 19.3 24.1 0.00 0.00 0.00 61 988.5
20260506150853 21 236 16.1 22.5 0.00 0.00 0.00 61 988.5
20260506150653 21 233 17.7 20.9 0.00 0.00 0.00 61 988.5
20260506150453 21 228 19.3 22.5 0.00 0.00 0.00 61 988.5
20260506150300 21 231 20.9 25.7 0.00 0.00 0.00 60 988.4
20260506150053 21 229 20.9 29.0 0.00 0.00 0.00 61 988.4
20260506145853 21 224 19.3 24.1 0.00 0.00 0.00 61 988.4
20260506145653 21 225 17.7 22.5 0.00 0.00 0.00 61 988.4
20260506145453 21 226 17.7 24.1 0.00 0.00 0.00 61 988.3
20260506145253 21 230 16.1 22.5 0.00 0.00 0.00 61 988.3
20260506145053 21 218 17.7 24.1 0.00 0.00 0.00 61 988.2
20260506144853 21 207 16.1 24.1 0.00 0.00 0.00 62 988.2
20260506144653 21 200 14.5 20.9 0.00 0.00 0.00 62 988.1
20260506144453 21 198 14.5 20.9 0.00 0.00 0.00 62 988.1
20260506144252 21 215 16.1 20.9 0.00 0.00 0.00 62 988.1
20260506144052 21 218 14.5 19.3 0.00 0.00 0.00 62 988.1
20260506143852 21 213 11.3 16.1 0.00 0.00 0.00 62 988.1
20260506143652 21 220 11.3 16.1 0.00 0.00 0.00 62 988.2
20260506143452 21 231 12.9 16.1 0.00 0.00 0.00 62 988.2
20260506143252 21 236 12.9 16.1 0.00 0.00 0.00 62 988.2
20260506143052 21 243 11.3 14.5 0.00 0.00 0.00 62 988.2
20260506142852 21 242 11.3 14.5 0.00 0.00 0.00 63 988.2
20260506142652 21 237 11.3 14.5 0.00 0.00 0.00 62 988.3
20260506142452 21 236 12.9 16.1 0.00 0.00 0.00 62 988.3
20260506142252 21 242 11.3 16.1 0.00 0.00 0.00 63 988.2
20260506142052 21 231 9.7 12.9 0.00 0.00 0.00 62 988.3
20260506141852 21 225 12.9 17.7 0.00 0.00 0.00 62 988.3
20260506141652 21 218 19.3 25.7 0.00 0.00 0.00 62 988.3
20260506141452 22 219 14.5 25.7 0.00 0.00 0.00 62 988.3
20260506141252 22 225 12.9 19.3 0.00 0.00 0.00 62 988.3
20260506141051 22 221 12.9 19.3 0.00 0.00 0.00 62 988.1
20260506140851 22 226 11.3 17.7 0.00 0.00 0.00 62 988.0
20260506140651 22 224 6.4 8.0 0.00 0.00 0.00 62 987.9
20260506140451 22 223 6.4 9.7 0.00 0.00 0.00 62 987.9
20260506140251 22 225 6.4 9.7 0.00 0.00 0.00 63 987.9
20260506140051 22 195 8.0 9.7 0.00 0.00 0.00 62 987.9
20260506135850 22 204 9.7 12.9 0.00 0.00 0.00 62 988.0
20260506135642 22 215 11.3 12.9 0.00 0.00 0.00 62 988.0
20260506135442 22 218 9.7 12.9 0.00 0.00 0.00 62 988.0
20260506135242 22 214 9.7 14.5 0.00 0.00 0.00 63 988.3
20260506135042 22 211 12.9 16.1 0.00 0.00 0.00 63 988.6
20260506134842 22 221 16.1 25.7 0.00 0.00 0.00 63 988.6
20260506134642 22 246 12.9 14.5 0.00 0.00 0.00 63 988.6
20260506134442 22 246 11.3 14.5 0.00 0.00 0.00 63 988.4
20260506134242 22 231 12.9 16.1 0.00 0.00 0.00 63 988.2
20260506134041 22 176 11.3 16.1 0.00 0.00 0.00 63 987.9
20260506133841 22 156 8.0 12.9 0.00 0.00 0.00 63 987.9
20260506133641 22 201 8.0 16.1 0.00 0.00 0.00 63 987.8
20260506133441 22 267 8.0 16.1 0.00 0.00 0.00 63 987.7
20260506133241 22 274 6.4 9.7 0.00 0.00 0.00 64 987.6
20260506133041 22 267 4.8 9.7 0.00 0.00 0.00 64 987.6
20260506132841 22 211 1.6 4.8 0.00 0.00 0.00 64 987.7
20260506132641 22 226 3.2 4.8 0.00 0.00 0.00 64 987.8
20260506132441 22 240 4.8 8.0 0.00 0.00 0.00 64 987.9
20260506132241 22 244 6.4 9.7 0.00 0.00 0.00 64 987.7
20260506132041 22 253 6.4 9.7 0.00 0.00 0.00 64 987.5
20260506131841 22 260 4.8 8.0 0.00 0.00 0.00 64 987.4
20260506131641 22 261 3.2 8.0 0.00 0.00 0.00 64 987.3
20260506131441 22 272 1.6 1.6 0.00 0.00 0.00 65 987.3
20260506131241 21 273 3.2 8.0 0.00 0.00 0.00 65 987.4
20260506131041 21 275 6.4 9.7 0.00 0.00 0.00 65 987.4
20260506130841 21 277 6.4 11.3 0.00 0.00 0.00 65 987.4
20260506130641 21 249 6.4 9.7 0.00 0.00 0.00 65 987.5
20260506130441 21 317 8.0 11.3 0.00 0.00 0.00 65 987.6
20260506130240 21 312 9.7 12.9 0.00 0.00 0.00 65 987.7
20260506130041 21 290 9.7 11.3 0.00 0.00 0.00 65 987.8
20260506125840 21 283 9.7 12.9 0.00 0.00 0.00 65 987.7
20260506125641 21 291 9.7 12.9 0.00 0.00 0.00 65 987.7
20260506125441 21 279 8.0 12.9 0.00 0.00 0.00 65 987.7
20260506125240 21 260 4.8 8.0 0.00 0.00 0.00 65 987.8
20260506125041 21 249 4.8 6.4 0.00 0.00 0.00 65 987.9
20260506124840 21 218 3.2 6.4 0.00 0.00 0.00 65 988.0
20260506124641 21 209 4.8 8.0 0.00 0.00 0.00 65 987.9
20260506124440 21 252 3.2 4.8 0.00 0.00 0.00 65 987.9
20260506124241 21 62 1.6 1.6 0.00 0.00 0.00 65 988.0
20260506124040 21 65 1.6 1.6 0.00 0.00 0.00 65 987.9
20260506123840 21 63 1.6 1.6 0.00 0.00 0.00 65 987.8
20260506123640 21 62 1.6 3.2 0.00 0.00 0.00 66 987.8
20260506123440 21 62 3.2 6.4 0.00 0.00 0.00 66 987.8
20260506123240 21 38 3.2 6.4 0.00 0.00 0.00 66 987.8
20260506123040 21 30 3.2 4.8 0.00 0.00 0.00 66 988.0
20260506122840 21 6 3.2 8.0 0.00 0.00 0.00 66 988.2
20260506122640 21 349 4.8 8.0 0.00 0.00 0.00 66 988.2
20260506122440 21 20 3.2 4.8 0.00 0.00 0.00 66 988.2
20260506122240 21 34 3.2 3.2 0.00 0.00 0.00 66 988.2
20260506122040 21 72 3.2 8.0 0.00 0.00 0.00 66 988.1
20260506121840 21 88 6.4 9.7 0.00 0.00 0.00 66 987.9
20260506121640 21 63 4.8 8.0 0.00 0.00 0.00 66 987.6
20260506121440 21 8 3.2 6.4 0.00 0.00 0.00 66 987.6
20260506121240 21 9 3.2 4.8 0.00 0.00 0.00 66 987.6
20260506121040 21 33 3.2 6.4 0.00 0.00 0.00 66 987.7
20260506120839 21 66 3.2 6.4 0.00 0.00 0.00 66 987.8
20260506120639 21 54 4.8 6.4 0.00 0.00 0.00 67 987.8
20260506120439 21 85 6.4 9.7 0.00 0.00 0.00 67 987.7
20260506120239 21 82 6.4 9.7 0.00 0.00 0.00 67 987.7
20260506120039 20 51 4.8 8.0 0.00 0.00 0.00 67 987.8
20260506115839 20 55 6.4 8.0 0.00 0.00 0.00 67 987.9
20260506115639 20 48 8.0 14.5 0.00 0.00 0.00 67 987.9
20260506115439 20 33 8.0 11.3 0.00 0.00 0.00 67 987.9
20260506115239 20 33 6.4 11.3 0.00 0.00 0.00 68 988.0
20260506115039 20 44 6.4 12.9 0.00 0.00 0.00 68 988.1
20260506114839 20 58 9.7 16.1 0.00 0.00 0.00 68 988.1
20260506114639 20 65 9.7 12.9 0.00 0.00 0.00 68 988.0
20260506114439 20 65 8.0 11.3 0.00 0.00 0.00 68 987.9
20260506114239 20 79 8.0 12.9 0.00 0.00 0.00 68 988.0
20260506114039 20 81 9.7 12.9 0.00 0.00 0.00 68 988.0
20260506113839 20 75 9.7 14.5 0.00 0.00 0.00 68 987.9
20260506113638 20 72 8.0 14.5 0.00 0.00 0.00 69 987.9
20260506113438 20 68 8.0 12.9 0.00 0.00 0.00 69 988.0
20260506113238 20 72 9.7 14.5 0.00 0.00 0.00 69 988.0
20260506113038 19 84 9.7 14.5 0.00 0.00 0.00 69 988.0
20260506112838 19 90 8.0 11.3 0.00 0.00 0.00 69 988.1
20260506112638 18 76 9.7 14.5 0.00 0.00 0.00 69 988.3
20260506112438 18 76 9.7 12.9 0.00 0.00 0.00 69 988.4
20260506112035 18 76 9.7 11.3 0.00 0.00 0.00 69 988.5
20260506111835 18 71 8.0 9.7 0.00 0.00 0.00 69 988.5
20260506111635 18 87 8.0 11.3 0.00 0.00 0.00 69 988.6
20260506111435 18 95 9.7 14.5 0.00 0.00 0.00 69 988.5
20260506111235 18 87 8.0 14.5 0.00 0.00 0.00 69 988.5
20260506111034 18 83 8.0 11.3 0.00 0.00 0.00 69 988.3
20260506110834 18 83 8.0 11.3 0.00 0.00 0.00 70 988.4
20260506110634 18 97 8.0 11.3 0.00 0.00 0.00 70 988.5
20260506110434 18 101 9.7 12.9 0.00 0.00 0.00 69 988.6
20260506110234 18 82 6.4 12.9 0.00 0.00 0.00 70 988.6
20260506110034 18 90 4.8 8.0 0.00 0.00 0.00 70 988.7
20260506105834 18 87 6.4 9.7 0.00 0.00 0.00 69 988.8
20260506105634 18 77 9.7 12.9 0.00 0.00 0.00 70 988.7
20260506105434 18 64 8.0 12.9 0.00 0.00 0.00 70 988.6
20260506105234 18 71 8.0 11.3 0.00 0.00 0.00 70 988.7
20260506105034 18 79 8.0 11.3 0.00 0.00 0.00 70 988.7
20260506104834 18 97 6.4 11.3 0.00 0.00 0.00 70 988.7
20260506104634 18 83 6.4 9.7 0.00 0.00 0.00 70 988.7
20260506104434 18 66 8.0 11.3 0.00 0.00 0.00 70 988.7
20260506104234 18 93 9.7 14.5 0.00 0.00 0.00 70 988.7
20260506104033 17 103 8.0 14.5 0.00 0.00 0.00 70 988.8
20260506103833 17 98 8.0 12.9 0.00 0.00 0.00 70 989.0
20260506103633 17 107 9.7 12.9 0.00 0.00 0.00 70 989.0
20260506103433 17 102 9.7 12.9 0.00 0.00 0.00 70 988.8
20260506103233 17 90 6.4 11.3 0.00 0.00 0.00 70 988.8
20260506103033 17 85 4.8 8.0 0.00 0.00 0.00 70 988.8
20260506102833 17 79 6.4 9.7 0.00 0.00 0.00 70 988.8
20260506102633 17 90 8.0 9.7 0.00 0.00 0.00 70 988.7
20260506102433 17 87 6.4 9.7 0.00 0.00 0.00 71 988.8
20260506102233 17 91 6.4 9.7 0.00 0.00 0.00 71 988.9
20260506102034 17 104 9.7 17.7 0.00 0.00 0.00 71 988.9
20260506101833 17 95 9.7 17.7 0.00 0.00 0.00 71 988.9
20260506101633 17 79 8.0 11.3 0.00 0.00 0.00 71 988.9
20260506101433 17 88 8.0 11.3 0.00 0.00 0.00 71 988.9
20260506101233 17 99 6.4 9.7 0.00 0.00 0.00 71 988.9
20260506101033 17 95 8.0 11.3 0.00 0.00 0.00 71 989.0
20260506100832 16 89 9.7 11.3 0.00 0.00 0.00 71 989.1
20260506100632 16 88 8.0 9.7 0.00 0.00 0.00 71 989.2
20260506100432 16 84 6.4 8.0 0.00 0.00 0.00 71 989.3
20260506100232 16 87 8.0 9.7 0.00 0.00 0.00 71 989.3
20260506100032 16 93 9.7 14.5 0.00 0.00 0.00 71 989.3
20260506095832 16 90 8.0 14.5 0.00 0.00 0.00 71 989.3
20260506095632 16 72 6.4 9.7 0.00 0.00 0.00 71 989.3
20260506095432 16 77 8.0 11.3 0.00 0.00 0.00 71 989.2
20260506095232 16 77 8.0 11.3 0.00 0.00 0.00 71 989.1
20260506095032 16 94 8.0 9.7 0.00 0.00 0.00 71 989.1
20260506094832 16 102 8.0 11.3 0.00 0.00 0.00 71 989.1
20260506094632 16 92 9.7 11.3 0.00 0.00 0.00 71 989.1
20260506094432 16 91 9.7 12.9 0.00 0.00 0.00 71 989.1
20260506094232 17 95 9.7 14.5 0.00 0.00 0.00 71 989.1
20260506094032 17 99 12.9 16.1 0.00 0.00 0.00 71 989.0
20260506093831 16 100 11.3 14.5 0.00 0.00 0.00 71 989.0
20260506093631 16 100 12.9 17.7 0.00 0.00 0.00 71 989.0
20260506093431 16 85 11.3 16.1 0.00 0.00 0.00 71 988.9
20260506093028 16 82 12.9 16.1 0.00 0.00 0.00 72 989.0
20260506092828 16 91 11.3 14.5 0.00 0.00 0.00 72 989.0
20260506092628 16 85 11.3 14.5 0.00 0.00 0.00 72 989.1
20260506092428 16 81 11.3 16.1 0.00 0.00 0.00 72 989.2
20260506092228 16 85 9.7 12.9 0.00 0.00 0.00 72 989.2
20260506092028 16 88 9.7 12.9 0.00 0.00 0.00 72 989.3
20260506091828 16 92 9.7 12.9 0.00 0.00 0.00 72 989.4
20260506091628 16 85 8.0 11.3 0.00 0.00 0.00 72 989.4
20260506091428 16 92 9.7 12.9 0.00 0.00 0.00 72 989.5
20260506091228 16 97 11.3 17.7 0.00 0.00 0.00 72 989.5
20260506091028 16 94 11.3 16.1 0.00 0.00 0.00 72 989.5
20260506090828 16 92 9.7 14.5 0.00 0.00 0.00 72 989.4
20260506090628 16 106 11.3 16.1 0.00 0.00 0.00 72 989.4
20260506090428 16 96 9.7 16.1 0.00 0.00 0.00 72 989.3
20260506090227 15 82 8.0 11.3 0.00 0.00 0.00 72 989.3
20260506090027 15 86 11.3 12.9 0.00 0.00 0.00 72 989.4
20260506085827 15 106 11.3 16.1 0.00 0.00 0.00 72 989.3
20260506085627 15 100 11.3 16.1 0.00 0.00 0.00 72 989.3
20260506085427 15 104 8.0 12.9 0.00 0.00 0.00 72 989.4
20260506085227 15 111 9.7 12.9 0.00 0.00 0.00 72 989.5
20260506085027 15 98 9.7 14.5 0.00 0.00 0.00 72 989.5
20260506084837 15 100 9.7 14.5 0.00 0.00 0.00 72 989.6
20260506084618 15 118 9.7 14.5 0.00 0.00 0.00 72 989.6
20260506084418 15 115 11.3 14.5 0.00 0.00 0.00 72 989.6
20260506084218 15 123 9.7 14.5 0.00 0.00 0.00 72 989.7
20260506084017 15 120 9.7 12.9 0.00 0.00 0.00 72 989.7
20260506083817 15 102 9.7 16.1 0.00 0.00 0.00 72 989.6
20260506083617 15 97 11.3 16.1 0.00 0.00 0.00 72 989.6
20260506083417 15 99 9.7 16.1 0.00 0.00 0.00 73 989.6
20260506083217 15 102 9.7 19.3 0.00 0.00 0.00 72 989.7
20260506083017 15 98 12.9 19.3 0.00 0.00 0.00 72 989.7
20260506082817 15 93 12.9 19.3 0.00 0.00 0.00 72 989.7
20260506082618 15 104 14.5 19.3 0.00 0.00 0.00 72 989.7
20260506082406 15 91 12.9 19.3 0.00 0.00 0.00 72 989.7
20260506081718 14 104 14.5 19.3 0.00 0.00 0.00 73 989.7
20260506081518 14 108 16.1 19.3 0.00 0.00 0.00 73 989.7
20260506081318 14 110 14.5 19.3 0.00 0.00 0.00 73 989.7
20260506081118 14 103 14.5 20.9 0.00 0.00 0.00 73 989.8
20260506080918 14 104 14.5 17.7 0.00 0.00 0.00 72 989.8
20260506080718 14 103 16.1 22.5 0.00 0.00 0.00 72 989.8
20260506080518 14 95 12.9 22.5 0.00 0.00 0.00 73 989.8
20260506080324 14 90 12.9 19.3 0.00 0.00 0.00 72 989.8
20260506080117 14 97 16.1 19.3 0.00 0.00 0.00 73 989.7
20260506073517 13 90 14.5 22.5 0.00 0.00 0.00 73 989.6
20260506073317 13 84 16.1 22.5 0.00 0.00 0.00 73 989.6
20260506073116 13 78 14.5 20.9 0.00 0.00 0.00 73 989.5
20260506072917 13 73 12.9 22.5 0.00 0.00 0.00 73 989.5
20260506072717 13 86 12.9 17.7 0.00 0.00 0.00 73 989.6
20260506072516 13 90 14.5 19.3 0.00 0.00 0.00 74 989.7
20260506072316 13 91 14.5 20.9 0.00 0.00 0.00 73 989.7
20260506072116 13 95 19.3 22.5 0.00 0.00 0.00 73 989.7
20260506071916 13 95 17.7 22.5 0.00 0.00 0.00 73 989.8
20260506071715 13 90 19.3 22.5 0.00 0.00 0.00 73 989.8
20260506071516 13 86 20.9 22.5 0.00 0.00 0.00 73 989.7
20260506071316 13 84 17.7 25.7 0.00 0.00 0.00 73 989.7
20260506071116 13 87 14.5 20.9 0.00 0.00 0.00 74 989.6
20260506070916 13 94 14.5 19.3 0.00 0.00 0.00 74 989.7
20260506070717 13 96 16.1 20.9 0.00 0.00 0.00 74 989.8
20260506070516 12 85 16.1 20.9 0.00 0.00 0.00 74 989.8
20260506070316 12 90 14.5 19.3 0.00 0.00 0.00 74 989.8
20260506070115 12 97 16.1 20.9 0.00 0.00 0.00 74 989.8
20260506062515 11 83 16.1 25.7 0.00 0.00 0.00 74 990.2
20260506062314 11 76 16.1 19.3 0.00 0.00 0.00 74 990.2
20260506062114 11 76 14.5 19.3 0.00 0.00 0.00 74 990.2
20260506061914 11 82 14.5 22.5 0.00 0.00 0.00 74 990.3
20260506061714 11 82 14.5 24.1 0.00 0.00 0.00 74 990.3
20260506061514 11 80 16.1 25.7 0.00 0.00 0.00 74 990.4
20260506061314 11 84 17.7 25.7 0.00 0.00 0.00 74 990.3
20260506061105 11 90 14.5 22.5 0.00 0.00 0.00 74 990.3
20260506060907 11 82 12.9 19.3 0.00 0.00 0.00 75 990.3
20260506060705 11 80 9.7 19.3 0.00 0.00 0.00 75 990.2
20260506060505 11 81 11.3 17.7 0.00 0.00 0.00 75 990.2
20260506060305 11 80 12.9 20.9 0.00 0.00 0.00 75 990.3
20260506060105 11 84 17.7 24.1 0.00 0.00 0.00 75 990.4
20260506051304 10 69 14.5 19.3 0.00 0.00 0.00 75 990.8
20260506051104 10 73 12.9 19.3 0.00 0.00 0.00 75 990.8
20260506050903 10 69 11.3 19.3 0.00 0.00 0.00 75 990.8
20260506050703 9 66 9.7 17.7 0.00 0.00 0.00 75 990.8
20260506050503 9 62 16.1 25.7 0.00 0.00 0.00 75 990.7
20260506050303 9 61 16.1 25.7 0.00 0.00 0.00 75 990.7
20260506050103 9 68 12.9 29.0 0.00 0.00 0.00 75 990.7
20260506045103 9 73 11.3 16.1 0.00 0.00 0.00 75 990.9
20260506044903 9 74 11.3 16.1 0.00 0.00 0.00 75 990.9
20260506044702 9 64 11.3 16.1 0.00 0.00 0.00 75 990.9
20260506044503 9 68 12.9 20.9 0.00 0.00 0.00 75 990.8
20260506044303 9 72 16.1 20.9 0.00 0.00 0.00 75 990.8
20260506044103 9 72 14.5 20.9 0.00 0.00 0.00 75 990.8
20260506043903 9 69 14.5 19.3 0.00 0.00 0.00 75 990.8
20260506043701 9 65 14.5 19.3 0.00 0.00 0.00 74 990.9
20260506043502 9 64 12.9 17.7 0.00 0.00 0.00 74 991.0
20260506043302 9 66 14.5 25.7 0.00 0.00 0.00 74 991.1
20260506043102 9 66 12.9 22.5 0.00 0.00 0.00 74 991.2
20260506042902 9 65 14.5 19.3 0.00 0.00 0.00 74 991.2
20260506042701 9 64 17.7 22.5 0.00 0.00 0.00 74 991.2
20260506042502 9 64 16.1 20.9 0.00 0.00 0.00 74 991.2
20260506042305 9 61 12.9 17.7 0.00 0.00 0.00 74 991.1
20260506042102 9 56 14.5 22.5 0.00 0.00 0.00 74 991.0
20260506041902 9 61 12.9 22.5 0.00 0.00 0.00 74 991.0
20260506041701 9 61 11.3 16.1 0.00 0.00 0.00 74 991.0
20260506041502 9 60 12.9 19.3 0.00 0.00 0.00 74 991.0
20260506041302 9 62 12.9 19.3 0.00 0.00 0.00 74 991.0
20260506041102 9 62 9.7 16.1 0.00 0.00 0.00 74 991.0
20260506040902 9 61 12.9 16.1 0.00 0.00 0.00 74 991.0
20260506040701 9 65 12.9 17.7 0.00 0.00 0.00 74 991.0
20260506040501 9 62 14.5 20.9 0.00 0.00 0.00 74 990.9
20260506040301 9 62 14.5 20.9 0.00 0.00 0.00 74 990.8
20260506040101 9 60 14.5 19.3 0.00 0.00 0.00 74 990.7
20260506035901 8 64 12.9 17.7 0.00 0.00 0.00 74 990.8
20260506035700 8 66 14.5 19.3 0.00 0.00 0.00 74 990.8
20260506035501 8 63 17.7 24.1 0.00 0.00 0.00 74 990.8
20260506035301 8 64 17.7 24.1 0.00 0.00 0.00 74 990.8
20260506035101 8 57 12.9 20.9 0.00 0.00 0.00 74 990.9
20260506034901 8 55 14.5 20.9 0.00 0.00 0.00 74 991.0